Year,Month,Day,Hour,Minute,Value (Times are PST for temperature in C)
2010,08,13,00,00,18.10
2010,08,13,00,01,18.10
2010,08,13,00,02,18.10
2010,08,13,00,03,18.10
2010,08,13,00,04,18.10
2010,08,13,00,05,18.10
2010,08,13,00,06,18.00
2010,08,13,00,07,18.00
2010,08,13,00,08,18.00
2010,08,13,00,09,17.90
2010,08,13,00,10,17.90
2010,08,13,00,11,17.90
2010,08,13,00,12,17.90
2010,08,13,00,13,17.90
2010,08,13,00,14,17.90
2010,08,13,00,15,17.90
2010,08,13,00,16,17.90
2010,08,13,00,17,17.90
2010,08,13,00,18,17.80
2010,08,13,00,19,17.80
2010,08,13,00,20,17.80
2010,08,13,00,21,17.80
2010,08,13,00,22,17.80
2010,08,13,00,23,17.80
2010,08,13,00,24,17.80
2010,08,13,00,25,17.80
2010,08,13,00,26,17.80
2010,08,13,00,27,17.80
2010,08,13,00,28,17.80
2010,08,13,00,29,17.70
2010,08,13,00,30,17.70
2010,08,13,00,31,17.70
2010,08,13,00,32,17.70
2010,08,13,00,33,17.70
2010,08,13,00,34,17.60
2010,08,13,00,35,17.60
2010,08,13,00,36,17.60
2010,08,13,00,37,17.60
2010,08,13,00,38,17.60
2010,08,13,00,39,17.60
2010,08,13,00,40,17.60
2010,08,13,00,41,17.60
2010,08,13,00,42,17.50
2010,08,13,00,43,17.50
2010,08,13,00,44,17.50
2010,08,13,00,45,17.50
2010,08,13,00,46,17.50
2010,08,13,00,47,17.50
2010,08,13,00,48,17.50
2010,08,13,00,49,17.50
2010,08,13,00,50,17.50
2010,08,13,00,51,17.50
2010,08,13,00,52,17.50
2010,08,13,00,53,17.50
2010,08,13,00,54,17.40
2010,08,13,00,55,17.40
2010,08,13,00,56,17.40
2010,08,13,00,57,17.40
2010,08,13,00,58,17.40
2010,08,13,00,59,17.40
2010,08,13,01,00,17.30
2010,08,13,01,01,17.30
2010,08,13,01,02,17.30
2010,08,13,01,03,17.30
2010,08,13,01,04,17.20
2010,08,13,01,05,17.20
2010,08,13,01,06,17.20
2010,08,13,01,07,17.20
2010,08,13,01,08,17.10
2010,08,13,01,09,17.10
2010,08,13,01,10,17.10
2010,08,13,01,11,17.00
2010,08,13,01,12,17.00
2010,08,13,01,13,16.90
2010,08,13,01,14,16.80
2010,08,13,01,15,16.80
2010,08,13,01,16,16.70
2010,08,13,01,17,16.70
2010,08,13,01,18,16.60
2010,08,13,01,19,16.60
2010,08,13,01,20,16.60
2010,08,13,01,21,16.60
2010,08,13,01,22,16.60
2010,08,13,01,23,16.50
2010,08,13,01,24,16.50
2010,08,13,01,25,16.50
2010,08,13,01,26,16.50
2010,08,13,01,27,16.50
2010,08,13,01,28,16.40
2010,08,13,01,29,16.40
2010,08,13,01,30,16.40
2010,08,13,01,31,16.40
2010,08,13,01,32,16.30
2010,08,13,01,33,16.30
2010,08,13,01,34,16.20
2010,08,13,01,35,16.10
2010,08,13,01,36,16.10
2010,08,13,01,37,16.00
2010,08,13,01,38,16.00
2010,08,13,01,39,15.90
2010,08,13,01,40,15.90
2010,08,13,01,41,15.80
2010,08,13,01,42,15.80
2010,08,13,01,43,15.70
2010,08,13,01,44,15.70
2010,08,13,01,45,15.60
2010,08,13,01,46,15.60
2010,08,13,01,47,15.60
2010,08,13,01,48,15.50
2010,08,13,01,49,15.50
2010,08,13,01,50,15.40
2010,08,13,01,51,15.40
2010,08,13,01,52,15.30
2010,08,13,01,53,15.30
2010,08,13,01,54,15.30
2010,08,13,01,55,15.30
2010,08,13,01,56,15.20
2010,08,13,01,57,15.20
2010,08,13,01,58,15.20
2010,08,13,01,59,15.10
2010,08,13,02,00,15.00
2010,08,13,02,01,15.00
2010,08,13,02,02,15.00
2010,08,13,02,03,15.00
2010,08,13,02,04,15.00
2010,08,13,02,05,15.00
2010,08,13,02,06,15.00
2010,08,13,02,07,15.00
2010,08,13,02,08,15.00
2010,08,13,02,09,15.00
2010,08,13,02,10,14.90
2010,08,13,02,11,14.90
2010,08,13,02,12,14.90
2010,08,13,02,13,14.80
2010,08,13,02,14,14.80
2010,08,13,02,15,14.80
2010,08,13,02,16,14.80
2010,08,13,02,17,14.80
2010,08,13,02,18,14.80
2010,08,13,02,19,14.90
2010,08,13,02,20,15.00
2010,08,13,02,21,15.00
2010,08,13,02,22,15.00
2010,08,13,02,23,15.20
2010,08,13,02,24,15.30
2010,08,13,02,25,15.40
2010,08,13,02,26,15.50
2010,08,13,02,27,15.50
2010,08,13,02,28,15.60
2010,08,13,02,29,15.60
2010,08,13,02,30,15.70
2010,08,13,02,31,15.70
2010,08,13,02,32,15.70
2010,08,13,02,33,15.70
2010,08,13,02,34,15.70
2010,08,13,02,35,15.70
2010,08,13,02,36,15.70
2010,08,13,02,37,15.70
2010,08,13,02,38,15.70
2010,08,13,02,39,15.70
2010,08,13,02,40,15.70
2010,08,13,02,41,15.80
2010,08,13,02,42,15.80
2010,08,13,02,43,15.90
2010,08,13,02,44,15.90
2010,08,13,02,45,15.90
2010,08,13,02,46,16.00
2010,08,13,02,47,16.00
2010,08,13,02,48,16.00
2010,08,13,02,49,16.10
2010,08,13,02,50,16.10
2010,08,13,02,51,16.10
2010,08,13,02,52,16.10
2010,08,13,02,53,16.10
2010,08,13,02,54,16.10
2010,08,13,02,55,16.10
2010,08,13,02,56,16.10
2010,08,13,02,57,16.10
2010,08,13,02,58,16.00
2010,08,13,02,59,15.90
2010,08,13,03,00,15.90
2010,08,13,03,01,15.90
2010,08,13,03,02,15.80
2010,08,13,03,03,15.90
2010,08,13,03,04,15.90
2010,08,13,03,05,15.90
2010,08,13,03,06,16.00
2010,08,13,03,07,16.00
2010,08,13,03,08,16.10
2010,08,13,03,09,16.10
2010,08,13,03,10,16.20
2010,08,13,03,11,16.20
2010,08,13,03,12,16.20
2010,08,13,03,13,16.20
2010,08,13,03,14,16.20
2010,08,13,03,15,16.20
2010,08,13,03,16,16.20
2010,08,13,03,17,16.30
2010,08,13,03,18,16.30
2010,08,13,03,19,16.30
2010,08,13,03,20,16.30
2010,08,13,03,21,16.30
2010,08,13,03,22,16.20
2010,08,13,03,23,16.20
2010,08,13,03,24,16.20
2010,08,13,03,25,16.20
2010,08,13,03,26,16.20
2010,08,13,03,27,16.20
2010,08,13,03,28,16.20
2010,08,13,03,29,16.20
2010,08,13,03,30,16.20
2010,08,13,03,31,16.20
2010,08,13,03,32,16.20
2010,08,13,03,33,16.20
2010,08,13,03,34,16.20
2010,08,13,03,35,16.20
2010,08,13,03,36,16.20
2010,08,13,03,37,16.20
2010,08,13,03,38,16.20
2010,08,13,03,39,16.20
2010,08,13,03,40,16.20
2010,08,13,03,41,16.10
2010,08,13,03,42,16.10
2010,08,13,03,43,16.10
2010,08,13,03,44,16.10
2010,08,13,03,45,16.10
2010,08,13,03,46,16.10
2010,08,13,03,47,16.00
2010,08,13,03,48,16.00
2010,08,13,03,49,16.00
2010,08,13,03,50,16.00
2010,08,13,03,51,16.00
2010,08,13,03,52,15.90
2010,08,13,03,53,15.90
2010,08,13,03,54,15.90
2010,08,13,03,55,15.80
2010,08,13,03,56,15.80
2010,08,13,03,57,15.80
2010,08,13,03,58,15.80
2010,08,13,03,59,15.80
2010,08,13,04,00,15.70
2010,08,13,04,01,15.70
2010,08,13,04,02,15.70
2010,08,13,04,03,15.70
2010,08,13,04,04,15.70
2010,08,13,04,05,15.80
2010,08,13,04,06,15.80
2010,08,13,04,07,15.80
2010,08,13,04,08,15.80
2010,08,13,04,09,15.80
2010,08,13,04,10,15.80
2010,08,13,04,11,15.80
2010,08,13,04,12,15.80
2010,08,13,04,13,15.80
2010,08,13,04,14,15.80
2010,08,13,04,15,15.80
2010,08,13,04,16,15.80
2010,08,13,04,17,15.80
2010,08,13,04,18,15.80
2010,08,13,04,19,15.80
2010,08,13,04,20,15.80
2010,08,13,04,21,15.70
2010,08,13,04,22,15.80
2010,08,13,04,23,15.80
2010,08,13,04,24,15.80
2010,08,13,04,25,15.80
2010,08,13,04,26,15.80
2010,08,13,04,27,15.80
2010,08,13,04,28,15.80
2010,08,13,04,29,15.80
2010,08,13,04,30,15.80
2010,08,13,04,31,15.70
2010,08,13,04,32,15.70
2010,08,13,04,33,15.70
2010,08,13,04,34,15.70
2010,08,13,04,35,15.70
2010,08,13,04,36,15.70
2010,08,13,04,37,15.70
2010,08,13,04,38,15.70
2010,08,13,04,39,15.70
2010,08,13,04,40,15.70
2010,08,13,04,41,15.70
2010,08,13,04,42,15.70
2010,08,13,04,43,15.70
2010,08,13,04,44,15.70
2010,08,13,04,45,15.70
2010,08,13,04,46,15.70
2010,08,13,04,47,15.60
2010,08,13,04,48,15.60
2010,08,13,04,49,15.60
2010,08,13,04,50,15.60
2010,08,13,04,51,15.50
2010,08,13,04,52,15.50
2010,08,13,04,53,15.50
2010,08,13,04,54,15.50
2010,08,13,04,55,15.50
2010,08,13,04,56,15.50
2010,08,13,04,57,15.60
2010,08,13,04,58,15.60
2010,08,13,04,59,15.60
2010,08,13,05,00,15.60
2010,08,13,05,01,15.60
2010,08,13,05,02,15.60
2010,08,13,05,03,15.60
2010,08,13,05,04,15.60
2010,08,13,05,05,15.60
2010,08,13,05,06,15.70
2010,08,13,05,07,15.70
2010,08,13,05,08,15.70
2010,08,13,05,09,15.60
2010,08,13,05,10,15.60
2010,08,13,05,11,15.60
2010,08,13,05,12,15.60
2010,08,13,05,13,15.50
2010,08,13,05,14,15.50
2010,08,13,05,15,15.40
2010,08,13,05,16,15.40
2010,08,13,05,17,15.30
2010,08,13,05,18,15.30
2010,08,13,05,19,15.20
2010,08,13,05,20,15.10
2010,08,13,05,21,15.00
2010,08,13,05,22,15.00
2010,08,13,05,23,15.00
2010,08,13,05,24,15.00
2010,08,13,05,25,15.00
2010,08,13,05,26,15.00
2010,08,13,05,27,15.00
2010,08,13,05,28,14.90
2010,08,13,05,29,14.80
2010,08,13,05,30,14.80
2010,08,13,05,31,14.70
2010,08,13,05,32,14.70
2010,08,13,05,33,14.60
2010,08,13,05,34,14.60
2010,08,13,05,35,14.60
2010,08,13,05,36,14.60
2010,08,13,05,37,14.60
2010,08,13,05,38,14.60
2010,08,13,05,39,14.60
2010,08,13,05,40,14.60
2010,08,13,05,41,14.60
2010,08,13,05,42,14.60
2010,08,13,05,43,14.70
2010,08,13,05,44,14.70
2010,08,13,05,45,14.70
2010,08,13,05,46,14.80
2010,08,13,05,47,14.80
2010,08,13,05,48,14.80
2010,08,13,05,49,14.90
2010,08,13,05,50,15.00
2010,08,13,05,51,15.00
2010,08,13,05,52,15.00
2010,08,13,05,53,15.00
2010,08,13,05,54,15.00
2010,08,13,05,55,15.00
2010,08,13,05,56,15.00
2010,08,13,05,57,15.00
2010,08,13,05,58,15.00
2010,08,13,05,59,15.00
2010,08,13,06,00,15.00
2010,08,13,06,01,15.00
2010,08,13,06,02,15.00
2010,08,13,06,03,15.00
2010,08,13,06,04,15.00
2010,08,13,06,05,15.00
2010,08,13,06,06,15.00
2010,08,13,06,07,15.00
2010,08,13,06,08,15.00
2010,08,13,06,09,15.00
2010,08,13,06,10,15.00
2010,08,13,06,11,15.00
2010,08,13,06,12,15.00
2010,08,13,06,13,15.00
2010,08,13,06,14,15.00
2010,08,13,06,15,15.00
2010,08,13,06,16,15.00
2010,08,13,06,17,15.00
2010,08,13,06,18,15.00
2010,08,13,06,19,15.00
2010,08,13,06,20,15.00
2010,08,13,06,21,15.00
2010,08,13,06,22,15.00
2010,08,13,06,23,15.00
2010,08,13,06,24,15.00
2010,08,13,06,25,15.00
2010,08,13,06,26,15.00
2010,08,13,06,27,15.00
2010,08,13,06,28,15.00
2010,08,13,06,29,15.00
2010,08,13,06,30,15.00
2010,08,13,06,31,15.00
2010,08,13,06,32,14.90
2010,08,13,06,33,14.90
2010,08,13,06,34,14.90
2010,08,13,06,35,14.90
2010,08,13,06,36,15.00
2010,08,13,06,37,15.00
2010,08,13,06,38,15.00
2010,08,13,06,39,15.00
2010,08,13,06,40,15.00
2010,08,13,06,41,15.00
2010,08,13,06,42,15.00
2010,08,13,06,43,15.00
2010,08,13,06,44,15.00
2010,08,13,06,45,15.00
2010,08,13,06,46,15.10
2010,08,13,06,47,15.20
2010,08,13,06,48,15.20
2010,08,13,06,49,15.30
2010,08,13,06,50,15.30
2010,08,13,06,51,15.30
2010,08,13,06,52,15.40
2010,08,13,06,53,15.40
2010,08,13,06,54,15.50
2010,08,13,06,55,15.50
2010,08,13,06,56,15.50
2010,08,13,06,57,15.60
2010,08,13,06,58,15.60
2010,08,13,06,59,15.60
2010,08,13,07,00,15.70
2010,08,13,07,01,15.70
2010,08,13,07,02,15.70
2010,08,13,07,03,15.80
2010,08,13,07,04,15.80
2010,08,13,07,05,15.80
2010,08,13,07,06,15.90
2010,08,13,07,07,15.90
2010,08,13,07,08,15.90
2010,08,13,07,09,15.90
2010,08,13,07,10,16.00
2010,08,13,07,11,16.00
2010,08,13,07,12,16.00
2010,08,13,07,13,16.10
2010,08,13,07,14,16.10
2010,08,13,07,15,16.10
2010,08,13,07,16,16.10
2010,08,13,07,17,16.20
2010,08,13,07,18,16.20
2010,08,13,07,19,16.20
2010,08,13,07,20,16.30
2010,08,13,07,21,16.30
2010,08,13,07,22,16.30
2010,08,13,07,23,16.40
2010,08,13,07,24,16.40
2010,08,13,07,25,16.50
2010,08,13,07,26,16.50
2010,08,13,07,27,16.60
2010,08,13,07,28,16.60
2010,08,13,07,29,16.60
2010,08,13,07,30,16.70
2010,08,13,07,31,16.70
2010,08,13,07,32,16.70
2010,08,13,07,33,16.80
2010,08,13,07,34,16.80
2010,08,13,07,35,16.80
2010,08,13,07,36,16.80
2010,08,13,07,37,16.90
2010,08,13,07,38,16.90
2010,08,13,07,39,16.90
2010,08,13,07,40,17.00
2010,08,13,07,41,17.00
2010,08,13,07,42,17.10
2010,08,13,07,43,17.10
2010,08,13,07,44,17.10
2010,08,13,07,45,17.10
2010,08,13,07,46,17.20
2010,08,13,07,47,17.30
2010,08,13,07,48,17.30
2010,08,13,07,49,17.40
2010,08,13,07,50,17.40
2010,08,13,07,51,17.50
2010,08,13,07,52,17.50
2010,08,13,07,53,17.60
2010,08,13,07,54,17.60
2010,08,13,07,55,17.60
2010,08,13,07,56,17.70
2010,08,13,07,57,17.70
2010,08,13,07,58,17.70
2010,08,13,07,59,17.80
2010,08,13,08,00,17.80
2010,08,13,08,01,17.80
2010,08,13,08,02,17.80
2010,08,13,08,03,17.80
2010,08,13,08,04,17.90
2010,08,13,08,05,17.90
2010,08,13,08,06,17.90
2010,08,13,08,07,17.90
2010,08,13,08,08,18.00
2010,08,13,08,09,18.00
2010,08,13,08,10,18.10
2010,08,13,08,11,18.10
2010,08,13,08,12,18.10
2010,08,13,08,13,18.10
2010,08,13,08,14,18.20
2010,08,13,08,15,18.20
2010,08,13,08,16,18.20
2010,08,13,08,17,18.20
2010,08,13,08,18,18.30
2010,08,13,08,19,18.30
2010,08,13,08,20,18.30
2010,08,13,08,21,18.30
2010,08,13,08,22,18.40
2010,08,13,08,23,18.40
2010,08,13,08,24,18.40
2010,08,13,08,25,18.40
2010,08,13,08,26,18.40
2010,08,13,08,27,18.50
2010,08,13,08,28,18.50
2010,08,13,08,29,18.50
2010,08,13,08,30,18.50
2010,08,13,08,31,18.60
2010,08,13,08,32,18.60
2010,08,13,08,33,18.60
2010,08,13,08,34,18.60
2010,08,13,08,35,18.70
2010,08,13,08,36,18.70
2010,08,13,08,37,18.70
2010,08,13,08,38,18.80
2010,08,13,08,39,18.80
2010,08,13,08,40,18.80
2010,08,13,08,41,18.90
2010,08,13,08,42,18.90
2010,08,13,08,43,18.90
2010,08,13,08,44,19.00
2010,08,13,08,45,19.00
2010,08,13,08,46,19.10
2010,08,13,08,47,19.10
2010,08,13,08,48,19.10
2010,08,13,08,49,19.20
2010,08,13,08,50,19.20
2010,08,13,08,51,19.20
2010,08,13,08,52,19.30
2010,08,13,08,53,19.30
2010,08,13,08,54,19.30
2010,08,13,08,55,19.40
2010,08,13,08,56,19.40
2010,08,13,08,57,19.40
2010,08,13,08,58,19.40
2010,08,13,08,59,19.50
2010,08,13,09,00,19.50
2010,08,13,09,01,19.60
2010,08,13,09,02,19.60
2010,08,13,09,03,19.60
2010,08,13,09,04,19.70
2010,08,13,09,05,19.70
2010,08,13,09,06,19.80
2010,08,13,09,07,19.80
2010,08,13,09,08,19.90
2010,08,13,09,09,19.90
2010,08,13,09,10,20.00
2010,08,13,09,11,20.00
2010,08,13,09,12,20.10
2010,08,13,09,13,20.10
2010,08,13,09,14,20.20
2010,08,13,09,15,20.20
2010,08,13,09,16,20.30
2010,08,13,09,17,20.30
2010,08,13,09,18,20.30
2010,08,13,09,19,20.30
2010,08,13,09,20,20.30
2010,08,13,09,21,20.40
2010,08,13,09,22,20.40
2010,08,13,09,23,20.50
2010,08,13,09,24,20.50
2010,08,13,09,25,20.60
2010,08,13,09,26,20.60
2010,08,13,09,27,20.60
2010,08,13,09,28,20.60
2010,08,13,09,29,20.60
2010,08,13,09,30,20.70
2010,08,13,09,31,20.70
2010,08,13,09,32,20.70
2010,08,13,09,33,20.70
2010,08,13,09,34,20.70
2010,08,13,09,35,20.80
2010,08,13,09,36,20.80
2010,08,13,09,37,20.90
2010,08,13,09,38,20.90
2010,08,13,09,39,21.00
2010,08,13,09,40,21.00
2010,08,13,09,41,21.10
2010,08,13,09,42,21.10
2010,08,13,09,43,21.10
2010,08,13,09,44,21.10
2010,08,13,09,45,21.10
2010,08,13,09,46,21.10
2010,08,13,09,47,21.10
2010,08,13,09,48,21.10
2010,08,13,09,49,21.10
2010,08,13,09,50,21.10
2010,08,13,09,51,21.10
2010,08,13,09,52,21.10
2010,08,13,09,53,21.10
2010,08,13,09,54,21.20
2010,08,13,09,55,21.20
2010,08,13,09,56,21.30
2010,08,13,09,57,21.30
2010,08,13,09,58,21.40
2010,08,13,09,59,21.40
2010,08,13,10,00,21.40
2010,08,13,10,01,21.40
2010,08,13,10,02,21.30
2010,08,13,10,03,21.30
2010,08,13,10,04,21.30
2010,08,13,10,05,21.30
2010,08,13,10,06,21.20
2010,08,13,10,07,21.20
2010,08,13,10,08,21.20
2010,08,13,10,09,21.20
2010,08,13,10,10,21.20
2010,08,13,10,11,21.20
2010,08,13,10,12,21.30
2010,08,13,10,13,21.30
2010,08,13,10,14,21.40
2010,08,13,10,15,21.50
2010,08,13,10,16,21.60
2010,08,13,10,17,21.70
2010,08,13,10,18,21.80
2010,08,13,10,19,21.90
2010,08,13,10,20,22.00
2010,08,13,10,21,22.00
2010,08,13,10,22,22.10
2010,08,13,10,23,22.20
2010,08,13,10,24,22.20
2010,08,13,10,25,22.20
2010,08,13,10,26,22.20
2010,08,13,10,27,22.30
2010,08,13,10,28,22.30
2010,08,13,10,29,22.40
2010,08,13,10,30,22.50
2010,08,13,10,31,22.60
2010,08,13,10,32,22.70
2010,08,13,10,33,22.70
2010,08,13,10,34,22.70
2010,08,13,10,35,22.70
2010,08,13,10,36,22.70
2010,08,13,10,37,22.70
2010,08,13,10,38,22.70
2010,08,13,10,39,22.70
2010,08,13,10,40,22.70
2010,08,13,10,41,22.70
2010,08,13,10,42,22.80
2010,08,13,10,43,22.90
2010,08,13,10,44,22.90
2010,08,13,10,45,23.00
2010,08,13,10,46,23.00
2010,08,13,10,47,23.10
2010,08,13,10,48,23.20
2010,08,13,10,49,23.20
2010,08,13,10,50,23.30
2010,08,13,10,51,23.40
2010,08,13,10,52,23.50
2010,08,13,10,53,23.60
2010,08,13,10,54,23.70
2010,08,13,10,55,23.70
2010,08,13,10,56,23.70
2010,08,13,10,57,23.70
2010,08,13,10,58,23.70
2010,08,13,10,59,23.70
2010,08,13,11,00,23.70
2010,08,13,11,01,23.70
2010,08,13,11,02,23.70
2010,08,13,11,03,23.70
2010,08,13,11,04,23.70
2010,08,13,11,05,23.70
2010,08,13,11,06,23.70
2010,08,13,11,07,23.70
2010,08,13,11,08,23.60
2010,08,13,11,09,23.60
2010,08,13,11,10,23.50
2010,08,13,11,11,23.50
2010,08,13,11,12,23.50
2010,08,13,11,13,23.50
2010,08,13,11,14,23.50
2010,08,13,11,15,23.50
2010,08,13,11,16,23.60
2010,08,13,11,17,23.60
2010,08,13,11,18,23.70
2010,08,13,11,19,23.70
2010,08,13,11,20,23.70
2010,08,13,11,21,23.70
2010,08,13,11,22,23.70
2010,08,13,11,23,23.70
2010,08,13,11,24,23.70
2010,08,13,11,25,23.70
2010,08,13,11,26,23.70
2010,08,13,11,27,23.60
2010,08,13,11,28,23.50
2010,08,13,11,29,23.40
2010,08,13,11,30,23.30
2010,08,13,11,31,23.30
2010,08,13,11,32,23.30
2010,08,13,11,33,23.30
2010,08,13,11,34,23.20
2010,08,13,11,35,23.20
2010,08,13,11,36,23.20
2010,08,13,11,37,23.30
2010,08,13,11,38,23.20
2010,08,13,11,39,23.20
2010,08,13,11,40,23.20
2010,08,13,11,41,23.20
2010,08,13,11,42,23.20
2010,08,13,11,43,23.20
2010,08,13,11,44,23.20
2010,08,13,11,45,23.20
2010,08,13,11,46,23.30
2010,08,13,11,47,23.30
2010,08,13,11,48,23.30
2010,08,13,11,49,23.30
2010,08,13,11,50,23.30
2010,08,13,11,51,23.40
2010,08,13,11,52,23.40
2010,08,13,11,53,23.40
2010,08,13,11,54,23.40
2010,08,13,11,55,23.50
2010,08,13,11,56,23.50
2010,08,13,11,57,23.50
2010,08,13,11,58,23.50
2010,08,13,11,59,23.50
2010,08,13,12,00,23.40
2010,08,13,12,01,23.40
2010,08,13,12,02,23.40
2010,08,13,12,03,23.40
2010,08,13,12,04,23.40
2010,08,13,12,05,23.30
2010,08,13,12,06,23.30
2010,08,13,12,07,23.40
2010,08,13,12,08,23.40
2010,08,13,12,09,23.50
2010,08,13,12,10,23.60
2010,08,13,12,11,23.60
2010,08,13,12,12,23.70
2010,08,13,12,13,23.70
2010,08,13,12,14,23.80
2010,08,13,12,15,23.80
2010,08,13,12,16,23.90
2010,08,13,12,17,23.90
2010,08,13,12,18,23.90
2010,08,13,12,19,23.90
2010,08,13,12,20,23.90
2010,08,13,12,21,23.90
2010,08,13,12,22,23.90
2010,08,13,12,23,23.90
2010,08,13,12,24,24.00
2010,08,13,12,25,24.00
2010,08,13,12,26,24.10
2010,08,13,12,27,24.10
2010,08,13,12,28,24.20
2010,08,13,12,29,24.20
2010,08,13,12,30,24.30
2010,08,13,12,31,24.30
2010,08,13,12,32,24.40
2010,08,13,12,33,24.40
2010,08,13,12,34,24.40
2010,08,13,12,35,24.40
2010,08,13,12,36,24.30
2010,08,13,12,37,24.30
2010,08,13,12,38,24.30
2010,08,13,12,39,24.20
2010,08,13,12,40,24.20
2010,08,13,12,41,24.20
2010,08,13,12,42,24.30
2010,08,13,12,43,24.30
2010,08,13,12,44,24.30
2010,08,13,12,45,24.30
2010,08,13,12,46,24.30
2010,08,13,12,47,24.30
2010,08,13,12,48,24.30
2010,08,13,12,49,24.40
2010,08,13,12,50,24.50
2010,08,13,12,51,24.60
2010,08,13,12,52,24.60
2010,08,13,12,53,24.60
2010,08,13,12,54,24.60
2010,08,13,12,55,24.60
2010,08,13,12,56,24.50
2010,08,13,12,57,24.50
2010,08,13,12,58,24.40
2010,08,13,12,59,24.40
2010,08,13,13,00,24.50
2010,08,13,13,01,24.50
2010,08,13,13,02,24.50
2010,08,13,13,03,24.50
2010,08,13,13,04,24.50
2010,08,13,13,05,24.50
2010,08,13,13,06,24.50
2010,08,13,13,07,24.50
2010,08,13,13,08,24.50
2010,08,13,13,09,24.50
2010,08,13,13,10,24.50
2010,08,13,13,11,24.40
2010,08,13,13,12,24.40
2010,08,13,13,13,24.40
2010,08,13,13,14,24.40
2010,08,13,13,15,24.30
2010,08,13,13,16,24.20
2010,08,13,13,17,24.20
2010,08,13,13,18,24.20
2010,08,13,13,19,24.10
2010,08,13,13,20,24.10
2010,08,13,13,21,24.10
2010,08,13,13,22,24.10
2010,08,13,13,23,24.10
2010,08,13,13,24,24.10
2010,08,13,13,25,24.10
2010,08,13,13,26,24.00
2010,08,13,13,27,24.00
2010,08,13,13,28,23.90
2010,08,13,13,29,23.80
2010,08,13,13,30,23.70
2010,08,13,13,31,23.70
2010,08,13,13,32,23.70
2010,08,13,13,33,23.70
2010,08,13,13,34,23.70
2010,08,13,13,35,23.60
2010,08,13,13,36,23.50
2010,08,13,13,37,23.50
2010,08,13,13,38,23.40
2010,08,13,13,39,23.30
2010,08,13,13,40,23.30
2010,08,13,13,41,23.20
2010,08,13,13,42,23.20
2010,08,13,13,43,23.20
2010,08,13,13,44,23.20
2010,08,13,13,45,23.20
2010,08,13,13,46,23.20
2010,08,13,13,47,23.20
2010,08,13,13,48,23.20
2010,08,13,13,49,23.20
2010,08,13,13,50,23.20
2010,08,13,13,51,23.30
2010,08,13,13,52,23.30
2010,08,13,13,53,23.40
2010,08,13,13,54,23.50
2010,08,13,13,55,23.50
2010,08,13,13,56,23.60
2010,08,13,13,57,23.60
2010,08,13,13,58,23.70
2010,08,13,13,59,23.70
2010,08,13,14,00,23.80
2010,08,13,14,01,23.80
2010,08,13,14,02,23.80
2010,08,13,14,03,23.80
2010,08,13,14,04,23.90
2010,08,13,14,05,24.00
2010,08,13,14,06,24.00
2010,08,13,14,07,24.10
2010,08,13,14,08,24.10
2010,08,13,14,09,24.20
2010,08,13,14,10,24.20
2010,08,13,14,11,24.10
2010,08,13,14,12,24.10
2010,08,13,14,13,24.10
2010,08,13,14,14,24.10
2010,08,13,14,15,24.10
2010,08,13,14,16,24.00
2010,08,13,14,17,24.00
2010,08,13,14,18,24.10
2010,08,13,14,19,24.10
2010,08,13,14,20,24.20
2010,08,13,14,21,24.20
2010,08,13,14,22,24.30
2010,08,13,14,23,24.30
2010,08,13,14,24,24.30
2010,08,13,14,25,24.40
2010,08,13,14,26,24.50
2010,08,13,14,27,24.60
2010,08,13,14,28,24.60
2010,08,13,14,29,24.70
2010,08,13,14,30,24.70
2010,08,13,14,31,24.70
2010,08,13,14,32,24.70
2010,08,13,14,33,24.80
2010,08,13,14,34,24.80
2010,08,13,14,35,24.90
2010,08,13,14,36,25.00
2010,08,13,14,37,25.10
2010,08,13,14,38,25.20
2010,08,13,14,39,25.30
2010,08,13,14,40,25.40
2010,08,13,14,41,25.50
2010,08,13,14,42,25.60
2010,08,13,14,43,25.70
2010,08,13,14,44,25.70
2010,08,13,14,45,25.70
2010,08,13,14,46,25.60
2010,08,13,14,47,25.60
2010,08,13,14,48,25.50
2010,08,13,14,49,25.50
2010,08,13,14,50,25.40
2010,08,13,14,51,25.40
2010,08,13,14,52,25.40
2010,08,13,14,53,25.40
2010,08,13,14,54,25.30
2010,08,13,14,55,25.40
2010,08,13,14,56,25.40
2010,08,13,14,57,25.50
2010,08,13,14,58,25.60
2010,08,13,14,59,25.70
2010,08,13,15,00,25.70
2010,08,13,15,01,25.80
2010,08,13,15,02,25.90
2010,08,13,15,03,25.90
2010,08,13,15,04,26.00
2010,08,13,15,05,26.10
2010,08,13,15,06,26.20
2010,08,13,15,07,26.20
2010,08,13,15,08,26.30
2010,08,13,15,09,26.20
2010,08,13,15,10,26.30
2010,08,13,15,11,26.40
2010,08,13,15,12,26.50
2010,08,13,15,13,26.60
2010,08,13,15,14,26.70
2010,08,13,15,15,26.80
2010,08,13,15,16,26.90
2010,08,13,15,17,27.00
2010,08,13,15,18,27.10
2010,08,13,15,19,27.10
2010,08,13,15,20,27.20
2010,08,13,15,21,27.20
2010,08,13,15,22,27.20
2010,08,13,15,23,27.30
2010,08,13,15,24,27.30
2010,08,13,15,25,27.40
2010,08,13,15,26,27.50
2010,08,13,15,27,27.60
2010,08,13,15,28,27.70
2010,08,13,15,29,27.90
2010,08,13,15,30,28.00
2010,08,13,15,31,28.10
2010,08,13,15,32,28.20
2010,08,13,15,33,28.30
2010,08,13,15,34,28.40
2010,08,13,15,35,28.50
2010,08,13,15,36,28.60
2010,08,13,15,37,28.70
2010,08,13,15,38,28.70
2010,08,13,15,39,28.70
2010,08,13,15,40,28.80
2010,08,13,15,41,28.80
2010,08,13,15,42,28.90
2010,08,13,15,43,29.00
2010,08,13,15,44,29.00
2010,08,13,15,45,29.10
2010,08,13,15,46,29.20
2010,08,13,15,47,29.30
2010,08,13,15,48,29.30
2010,08,13,15,49,29.30
2010,08,13,15,50,29.30
2010,08,13,15,51,29.40
2010,08,13,15,52,29.50
2010,08,13,15,53,29.50
2010,08,13,15,54,29.60
2010,08,13,15,55,29.60
2010,08,13,15,56,29.60
2010,08,13,15,57,29.60
2010,08,13,15,58,29.60
2010,08,13,15,59,29.60
2010,08,13,16,00,29.70
2010,08,13,16,01,29.80
2010,08,13,16,02,29.80
2010,08,13,16,03,29.90
2010,08,13,16,04,29.90
2010,08,13,16,05,29.90
2010,08,13,16,06,30.00
2010,08,13,16,07,30.00
2010,08,13,16,08,30.00
2010,08,13,16,09,30.00
2010,08,13,16,10,30.00
2010,08,13,16,11,30.00
2010,08,13,16,12,30.00
2010,08,13,16,13,29.90
2010,08,13,16,14,29.90
2010,08,13,16,15,29.90
2010,08,13,16,16,29.90
2010,08,13,16,17,29.90
2010,08,13,16,18,30.00
2010,08,13,16,19,30.00
2010,08,13,16,20,30.00
2010,08,13,16,21,29.90
2010,08,13,16,22,29.90
2010,08,13,16,23,29.90
2010,08,13,16,24,29.90
2010,08,13,16,25,29.90
2010,08,13,16,26,29.90
2010,08,13,16,27,29.90
2010,08,13,16,28,29.90
2010,08,13,16,29,30.00
2010,08,13,16,30,30.00
2010,08,13,16,31,29.90
2010,08,13,16,32,29.90
2010,08,13,16,33,29.90
2010,08,13,16,34,30.00
2010,08,13,16,35,30.00
2010,08,13,16,36,30.10
2010,08,13,16,37,30.10
2010,08,13,16,38,30.10
2010,08,13,16,39,30.10
2010,08,13,16,40,30.20
2010,08,13,16,41,30.20
2010,08,13,16,42,30.20
2010,08,13,16,43,30.20
2010,08,13,16,44,30.30
2010,08,13,16,45,30.30
2010,08,13,16,46,30.30
2010,08,13,16,47,30.30
2010,08,13,16,48,30.30
2010,08,13,16,49,30.30
2010,08,13,16,50,30.30
2010,08,13,16,51,30.30
2010,08,13,16,52,30.30
2010,08,13,16,53,30.30
2010,08,13,16,54,30.30
2010,08,13,16,55,30.30
2010,08,13,16,56,30.30
2010,08,13,16,57,30.30
2010,08,13,16,58,30.30
2010,08,13,16,59,30.20
2010,08,13,17,00,30.20
2010,08,13,17,01,30.20
2010,08,13,17,02,30.20
2010,08,13,17,03,30.20
2010,08,13,17,04,30.20
2010,08,13,17,05,30.30
2010,08,13,17,06,30.30
2010,08,13,17,07,30.30
2010,08,13,17,08,30.40
2010,08,13,17,09,30.40
2010,08,13,17,10,30.40
2010,08,13,17,11,30.40
2010,08,13,17,12,30.40
2010,08,13,17,13,30.40
2010,08,13,17,14,30.40
2010,08,13,17,15,30.40
2010,08,13,17,16,30.40
2010,08,13,17,17,30.40
2010,08,13,17,18,30.40
2010,08,13,17,19,30.40